Chehalis, WA
on Friday, January 25, 2013

Friday
Previous Day Next Day
Daily Summary
 ActualAverage (KOLM)Record (KOLM)
Temperature
Mean Temperature °F 40°F  
Max Temperature 53°F 47°F 57°F (2003)
Min Temperature 32°F 34°F 2°F (1950)
Degree Days
Heating Degree Days 22 25  
Month to date heating degree days 635  
Since 1 July heating degree days 2905  
Cooling Degree Days 0 0  
Month to date cooling degree days 0  
Year to date cooling degree days 0  
Moisture
Dew Point 40°F   
Average Humidity 91    
Maximum Humidity 100    
Minimum Humidity 72    
Precipitation
Precipitation 0.03 in 0.23 in 2.11 in (1971)
Month to date precipitation 6.44  
Year to date precipitation 6.44  
Wind
Wind Speed 6 mph   
Max Wind Speed 12 mph   
Max Gust Speed 17 mph   
Visibility 8 miles   
Events Rain   

Key: T is trace of precipitation, MM is missing value
Source: NWS Daily Summary
Time(PST)TemperatureDew PointHumidity Pressure Visibility Wind DirectionWind SpeedGust SpeedPrecipitationEvents Conditions
12:15 AM 44.6°F 41.0°F 87% 30.09 in 10.0 miles SSE 6.9 mph - N/A   Overcast
12:55 AM 44.6°F 41.0°F 87% 30.08 in 9.0 miles South 10.4 mph - 0.03 in Rain Light Rain
1:15 AM 44.6°F 41.0°F 87% 30.08 in 10.0 miles South 11.5 mph 16.1 mph N/A Rain Light Rain
1:35 AM 44.6°F 41.0°F 87% 30.08 in 10.0 miles South 9.2 mph 16.1 mph N/A   Overcast
1:55 AM 44.6°F 41.0°F 87% 30.08 in 10.0 miles South 10.4 mph 17.3 mph N/A   Scattered Clouds
2:15 AM 44.6°F 41.0°F 87% 30.09 in 10.0 miles South 9.2 mph - N/A   Mostly Cloudy
2:55 AM 44.6°F 41.0°F 87% 30.09 in 10.0 miles South 8.1 mph - N/A   Overcast
3:15 AM 44.6°F 41.0°F 87% 30.08 in 10.0 miles South 9.2 mph - N/A   Overcast
3:35 AM 44.6°F 41.0°F 87% 30.08 in 10.0 miles South 9.2 mph - N/A   Mostly Cloudy
3:55 AM 44.6°F 41.0°F 87% 30.08 in 10.0 miles South 9.2 mph - N/A   Overcast
4:15 AM 44.6°F 41.0°F 87% 30.07 in 10.0 miles South 8.1 mph - N/A   Overcast
4:35 AM 44.6°F 41.0°F 87% 30.07 in 10.0 miles South 8.1 mph - N/A   Overcast
4:55 AM 44.6°F 41.0°F 87% 30.07 in 10.0 miles South 5.8 mph - N/A   Mostly Cloudy
5:15 AM 44.6°F 41.0°F 87% 30.07 in 10.0 miles SSW 6.9 mph - N/A   Mostly Cloudy
5:35 AM 44.6°F 42.8°F 93% 30.07 in 10.0 miles SSW 5.8 mph - N/A   Overcast
5:55 AM 44.6°F 42.8°F 93% 30.07 in 8.0 miles SSW 5.8 mph - N/A Rain Light Rain
6:15 AM 44.6°F 42.8°F 93% 30.07 in 7.0 miles SSW 6.9 mph - N/A Rain Light Rain
6:35 AM 44.6°F 42.8°F 93% 30.07 in 5.0 miles SSW 6.9 mph - N/A   Overcast
6:55 AM 44.6°F 42.8°F 93% 30.07 in 7.0 miles South 6.9 mph - N/A   Overcast
7:15 AM 42.8°F 41.0°F 93% 30.07 in 5.0 miles South 5.8 mph - N/A   Overcast
7:35 AM 41.0°F 41.0°F 100% 30.06 in 4.0 miles South 5.8 mph - N/A   Scattered Clouds
7:55 AM 41.0°F 41.0°F 100% 30.06 in 3.0 miles Calm Calm - N/A   Clear
8:15 AM 41.0°F 39.2°F 93% 30.06 in 1.8 miles SSW 3.5 mph - N/A   Clear
8:35 AM 39.2°F 39.2°F 100% 30.06 in 1.2 miles Calm Calm - N/A   Clear
8:55 AM 39.2°F 39.2°F 100% 30.06 in 2.0 miles Calm Calm - N/A   Scattered Clouds
9:15 AM 39.2°F 39.2°F 100% 30.06 in 1.8 miles Calm Calm - N/A   Mostly Cloudy
9:35 AM 41.0°F 39.2°F 93% 30.07 in 4.0 miles SW 3.5 mph - N/A   Partly Cloudy
9:55 AM 39.2°F 39.2°F 100% 30.07 in 2.5 miles SW 3.5 mph - N/A   Partly Cloudy
10:15 AM 44.6°F 44.6°F 100% 30.07 in 4.0 miles SSW 4.6 mph - N/A   Scattered Clouds
10:35 AM 44.6°F 44.6°F 100% 30.07 in 4.0 miles SW 3.5 mph - N/A   Scattered Clouds
10:55 AM 46.4°F 44.6°F 93% 30.06 in 5.0 miles South 4.6 mph - N/A   Clear
11:15 AM 48.2°F 46.4°F 93% 30.06 in 5.0 miles SSE 6.9 mph - N/A   Mostly Cloudy
11:35 AM 50.0°F 46.4°F 87% 30.05 in 10.0 miles South 5.8 mph - N/A   Mostly Cloudy
11:55 AM 48.2°F 46.4°F 93% 30.04 in 5.0 miles South 5.8 mph - N/A   Mostly Cloudy
12:15 PM 50.0°F 44.6°F 82% 30.03 in 9.0 miles South 3.5 mph - N/A   Overcast
12:35 PM 50.0°F 44.6°F 82% 30.02 in 5.0 miles SSE 4.6 mph - N/A   Haze
12:55 PM 50.0°F 46.4°F 87% 30.02 in 5.0 miles SSE 6.9 mph - N/A   Haze
1:15 PM 51.8°F 46.4°F 82% 30.01 in 5.0 miles SSE 3.5 mph - N/A   Haze
1:55 PM 51.8°F 46.4°F 82% 30.00 in 10.0 miles ESE 3.5 mph - N/A   Scattered Clouds
2:15 PM 53.6°F 44.6°F 72% 29.99 in 10.0 miles SSE 3.5 mph - N/A   Mostly Cloudy
2:55 PM 50.0°F 46.4°F 87% 29.99 in 10.0 miles South 6.9 mph - N/A   Mostly Cloudy
3:15 PM 50.0°F 44.6°F 82% 29.98 in 10.0 miles South 5.8 mph - N/A   Partly Cloudy
3:35 PM 50.0°F 44.6°F 82% 29.98 in 10.0 miles South 4.6 mph - N/A   Partly Cloudy
3:55 PM 50.0°F 46.4°F 87% 29.98 in 5.0 miles South 4.6 mph - N/A   Haze
4:15 PM 50.0°F 44.6°F 82% 29.98 in 10.0 miles Calm Calm - N/A   Clear
4:35 PM 50.0°F 44.6°F 82% 29.98 in 10.0 miles Calm Calm - N/A   Clear
4:55 PM 48.2°F 44.6°F 87% 29.99 in 10.0 miles Calm Calm - N/A   Scattered Clouds
5:15 PM 46.4°F 41.0°F 81% 29.99 in 10.0 miles SW 3.5 mph - N/A   Partly Cloudy
5:55 PM 41.0°F 39.2°F 93% 29.99 in 10.0 miles Calm Calm - N/A   Clear
6:15 PM 41.0°F 39.2°F 93% 29.98 in 10.0 miles Calm Calm - N/A   Clear
6:35 PM 39.2°F 37.4°F 93% 29.98 in 10.0 miles West 3.5 mph - N/A   Clear
6:55 PM 39.2°F 37.4°F 93% 29.98 in 9.0 miles SW 4.6 mph - N/A   Clear
7:15 PM 41.0°F 37.4°F 87% 29.98 in 9.0 miles SSW 4.6 mph - N/A   Clear
7:35 PM 39.2°F 35.6°F 87% 29.97 in 10.0 miles NE 3.5 mph - N/A   Clear
7:55 PM 37.4°F 35.6°F 93% 29.97 in 10.0 miles Calm Calm - N/A   Clear
8:15 PM 35.6°F 35.6°F 100% 29.97 in 10.0 miles Calm Calm - N/A   Clear
8:35 PM 35.6°F 33.8°F 93% 29.97 in 7.0 miles Calm Calm - N/A   Clear
8:55 PM 33.8°F 32.0°F 93% 29.97 in 7.0 miles Calm Calm - N/A   Clear
9:15 PM 33.8°F 32.0°F 93% 29.97 in 10.0 miles Calm Calm - N/A   Scattered Clouds
9:35 PM 33.8°F 32.0°F 93% 29.97 in 9.0 miles Calm Calm - N/A   Mostly Cloudy
9:55 PM 33.8°F 32.0°F 93% 29.96 in 6.0 miles South 3.5 mph - N/A   Scattered Clouds
10:15 PM 32.0°F 32.0°F 100% 29.96 in 5.0 miles SW 3.5 mph - N/A   Overcast
10:35 PM 32.0°F 32.0°F 100% 29.96 in 8.0 miles WSW 4.6 mph - N/A   Mostly Cloudy
10:55 PM 32.0°F 32.0°F 100% 29.96 in 10.0 miles SSW 3.5 mph - N/A   Clear
11:15 PM 32.0°F 32.0°F 100% 29.97 in 9.0 miles Calm Calm - N/A   Mostly Cloudy
11:35 PM 32.0°F 32.0°F 100% 29.96 in 10.0 miles South 3.5 mph - N/A   Mostly Cloudy
11:55 PM 32.0°F 32.0°F 100% 29.95 in 10.0 miles Calm Calm - N/A   Mostly Cloudy
Moon Phase
Jan. 25 Jan. 26 Feb. 03 Feb. 10 Feb. 17
Sunrise:07:43 AM (PST) Moon Rise:04:08 PM (PST)1/25
Sunset:05:05 PM (PST) Moon Set:06:27 AM (PST)1/25

Copyright © 2014 The Weather Underground, Inc.